Flag for U.S.A. Weather past 2 weeks in Tallahassee, Florida, U.S.A.

Now
84 °F

Passing clouds.


Feels Like: 85 °F
Forecast: 72 / 90 °F
Wind: 9 mph from East

Location: Tallahassee Regional Airport

Current Time: May 24, 2015 at 9:27:50 PM

Latest Report: May 24, 2015 at 8:53 PM


Visibility: 10 mi

Pressure: 30.14 "Hg

Humidity: 49%

Dew point: 63 °F

Location of TallahasseeLocation

Historic Weather in Tallahassee — Graph

°F

Tallahassee temperature yesterday

Maximum temperature yesterday: 90 °F (at 4:53 PM)
Minimum temperature yesterday: 68 °F (at 12:53 AM)
Average temperature yesterday: 80 °F

Past Weeks' High & Low Weather Summary

 TemperatureHumidityPressure
High95 °F (May 20, 3:53 PM)97% (May 15, 8:53 PM)30.28 "Hg (May 15, 8:53 PM)
Low63 °F (May 11, 6:53 AM)31% (May 22, 4:53 PM)29.91 "Hg (May 20, 4:53 PM)
Average80 °F67%30.12 "Hg
* Reported May 9 7:53 PM — May 24 7:53 PM, Tallahassee, Weather by CustomWeather, © 2015

Note: Actual official high and low records may vary slightly from our data, if they occured in-between our weather recording intervals... More about our weather records

Advertising

Tallahassee weather history for previous 24 hours

 ConditionsComfort  
Time TempWeatherWind HumidityBarometerVisibility
7:53 PM
Sun, May 24
87 °FScattered clouds.15 mph45%30.13 "Hg10 mi
6:53 PM89 °FPartly sunny.14 mph43%30.12 "Hg10 mi
5:53 PM91 °FPartly sunny.14 mph41%30.12 "Hg10 mi
4:53 PM90 °FPartly sunny.9 mph43%30.14 "Hg10 mi
3:53 PM89 °FPartly sunny.9 mph46%30.16 "Hg10 mi
2:53 PM90 °FPartly sunny.12 mph45%30.18 "Hg10 mi
1:53 PM88 °FPartly sunny.12 mph50%30.21 "Hg10 mi
12:53 PM86 °FPartly sunny.9 mph53%30.23 "Hg10 mi
11:53 AM83 °FPartly sunny.7 mph59%30.24 "Hg10 mi
10:53 AM83 °FBroken clouds.14 mph61%30.24 "Hg10 mi
9:53 AM81 °FBroken clouds.13 mph65%30.24 "Hg10 mi
8:53 AM78 °FBroken clouds.14 mph71%30.25 "Hg10 mi
7:53 AM75 °FScattered clouds.10 mph82%30.24 "Hg10 mi
6:53 AM73 °FPassing clouds.9 mph88%30.23 "Hg10 mi
5:53 AM73 °FPassing clouds.8 mph84%30.22 "Hg10 mi
4:53 AM74 °FPassing clouds.10 mph82%30.21 "Hg10 mi
4:00 AM74 °FPassing clouds.9 mph82%30.22 "Hg10 mi
2:53 AM74 °FClear.10 mph82%30.21 "Hg10 mi
1:53 AM76 °FPassing clouds.8 mph74%30.22 "Hg10 mi
12:53 AM77 °FClear.10 mph71%30.22 "Hg10 mi
11:53 PM
Sat, May 23
79 °FClear.13 mph65%30.22 "Hg10 mi
10:53 PM81 °FClear.13 mph58%30.21 "Hg10 mi
9:53 PM83 °FClear.12 mph51%30.19 "Hg10 mi
Weather by CustomWeather, © 2015

See weather overviewHow to use our weather pages